Location: Potomac
(46.8816°N, 113.5795°W)
Time: 10:00:46
(UTC+00:00)

UKube-1 - Pass Details

Date: 29 June 2022
Orbit: 608 x 615 km, 98.4° (Epoch: 14 August)

Event Time Altitude Azimuth Distance (km) Brightness Sun altitude
Rises 05:27:08 0° 16° (NNE) 2,898 ? -13.9°
Reaches altitude 10° 05:29:21 10° 19° (NNE) 1,987 ? -14.1°
Maximum altitude 05:33:38 65° 102° (ESE) 676 ? -14.5°
Enters shadow 05:36:26 21° 181° (S) 1,388 ? -14.7°
